Weather in Faro

Portugal     37°01′09″N   7°55′39″W
temp.,
°C
wind,
m/s
gust,
m/s
humid.,
%
clouds,
%
prec.,
mm/h
press.,
hPa
HPBL,
m
25 february, thu
thu2500:00+15ese488871 0.1 1025576
03:00+15se6989100 0.6 1024587
06:00+15se81088100 2.1 1024638
09:00+15se6786100 3.1 1025485
12:00+16se7885100 4.8 1025593
15:00+15se6786100 0.9 1023524
18:00+15ese5686100 2.6 1023247
21:00+15s2484100 2.6 1024122
26 february, fri
fri2600:00+14nw4581100 3.4 1024209
03:00+14se6885100 0.8 1023627
06:00+13ese81092100 7.8 1023622
09:00+13ene81192100 6.0 1024566
12:00+14e81091100 10.0 1024622
15:00+14e6888100 1.1 1023526
18:00+14e5688100 1.4 1023395
21:00+14e3586100 0.5 1024428
27 february, sat
sat2700:00+14ne238499 0.5 1024222
03:00+13ene348398 0.0 1023259
06:00+13ne347799 0.0 1022182
09:00+14ene4672100 0.0 1023333
12:00+15e5771100 0.0 1022485
15:00+15ese4571100 0.0 1021421
18:00+15se2271100 0.0 1019143
21:00+14ese1275100 0.0 1020239
28 february, sun
sun2800:00+14e2279100 0.0 1019316
03:00+14e7878100 0.0 1018549
06:00+14ese9127863 0.0 1017693
09:00+14ene8117622 0.0 1018497
12:00+15e8117538 0.0 1018769
15:00+16e7117080 0.0 10151008
18:00+15ese457485 0.0 1015141
21:00+15e467938 0.0 1016296
1 march, mon
mon100:00+15e7127755 0.3 1016676
03:00+14e9127776 0.0 1015749
06:00+15ese9137388 0.0 1015879
09:00+14ene7107392 0.1 1016563
12:00+16ese797460 0.1 1017950
15:00+16ese587511 0.0 1016967
18:00+15ene227712 0.0 101781
21:00+15nne22770 0.0 101939